Terminal Aerodrome Forecast
Issued by NWS

Home | Current Version | Previous Version | Text Only | Print | Product List | Glossary On
Versions: 1 2 3 4 5 6 7 8 9 10 11 12 13 14 15 16 17 18
000
FTUS43 KDVN 171300 AAA
TAFCID
TAF AMD
KCID 171335Z 1714/1812 07006KT 4SM BR BKN040
      TEMPO 1714/1715 BKN020
     FM171600 08006KT P6SM BKN015
     FM171800 10007KT P6SM SCT030 SCT250
     FM180600 10003KT 4SM BR SKC
     FM180900 10003KT 1SM BR SCT009=

USA.gov is the U.S. government's official web portal to all federal, state and local government web resources and services.